EW7138 Weather Reports


Display with metric or nautical units.
time (UTC)temp
F
wind
direction
speed
MPH
gust
MPH
rain 1hr
in
rain 24hr
in
rain mn
in
humidity
%
barometer
mb
20260503183244 63 271 1.0 4.0 0.00 0.00 0.00 74 1010.0
20260503182826 62 232 0.0 3.0 0.00 0.00 0.00 76 1009.8
20260503182755 63 232 2.0 4.0 0.00 0.00 0.00 74 1010.0
20260503181740 62 319 0.0 6.0 0.00 0.00 0.00 76 1010.0
20260503181239 63 244 4.0 6.0 0.00 0.00 0.00 76 1010.0
20260503181007 60 278 2.0 7.0 0.00 0.00 0.00 82 1010.0
20260503180739 63 224 0.0 6.0 0.00 0.00 0.00 77 1009.9
20260503180243 63 259 2.0 6.0 0.00 0.00 0.00 77 1010.0
20260503175739 63 293 1.0 6.0 0.00 0.00 0.00 76 1009.9
20260503175236 63 248 1.0 7.0 0.00 0.00 0.00 76 1010.0
20260503174735 62 241 3.0 7.0 0.00 0.00 0.00 76 1010.0
20260503174233 61 253 1.0 4.0 0.00 0.00 0.00 79 1010.1
20260503173753 61 271 2.0 3.0 0.00 0.00 0.00 80 1010.1
20260503173237 60 251 1.0 7.0 0.00 0.00 0.00 82 1010.0
20260503172223 59 351 0.0 4.0 0.00 0.00 0.00 84 1009.9
20260503171723 59 14 3.0 4.0 0.00 0.00 0.00 83 1009.9
20260503171223 59 216 1.0 6.0 0.00 0.00 0.00 83 1010.1
20260503170726 59 264 3.0 6.0 0.00 0.00 0.00 84 1010.0
20260503170220 59 263 3.0 7.0 0.00 0.00 0.00 85 1010.1
20260503160211 56 312 0.0 3.0 0.00 0.00 0.00 92 1009.9
20260503150700 57 291 0.0 3.0 0.00 0.00 0.00 89 1009.6
20260503150159 57 278 1.0 3.0 0.00 0.00 0.00 89 1009.6
20260503140148 55 290 0.0 0.0 0.00 0.00 0.00 94 1008.9
20260503131135 55 288 1.0 1.0 0.00 0.00 0.00 94 1008.3
20260503130636 55 318 0.0 2.0 0.00 0.00 0.00 94 1008.2
20260503130135 55 271 0.0 2.0 0.00 0.00 0.00 94 1008.1
20260503110559 55 185 2.0 3.0 0.00 0.00 0.00 92 1008.3
20260503081529 56 299 1.0 6.0 0.00 0.00 0.00 90 1008.8
20260503080548 56 291 1.0 3.0 0.00 0.00 0.00 90 1008.9
20260503080529 56 255 1.0 4.0 0.00 0.00 0.00 90 1009.1
20260503072515 56 294 1.0 6.0 0.00 0.00 0.00 91 1009.1
20260503072047 56 291 0.0 2.0 0.00 0.00 0.00 91 1009.1
20260503072020 56 279 1.0 3.0 0.00 0.00 0.00 91 1009.2
20260503071013 56 287 0.0 2.0 0.00 0.00 0.00 91 1009.1
20260503070512 56 295 0.0 2.0 0.00 0.00 0.00 91 1009.1
20260503055000 56 303 0.0 2.0 0.00 0.00 0.00 90 1009.5
20260503054016 56 292 0.0 1.0 0.00 0.00 0.00 90 1009.4
20260503053954 56 303 1.0 3.0 0.00 0.00 0.00 90 1009.4
20260503052952 56 286 0.0 3.0 0.00 0.00 0.00 90 1009.5
20260503052452 56 264 0.0 3.0 0.00 0.00 0.00 90 1009.5
20260503052013 56 218 0.0 6.0 0.00 0.00 0.00 90 1009.4
20260503051950 56 263 0.0 4.0 0.00 0.00 0.00 90 1009.5
20260503050949 57 309 2.0 6.0 0.00 0.00 0.00 89 1009.5
20260503050450 56 287 1.0 2.0 0.00 0.00 0.00 89 1009.5
20260503050011 56 287 0.0 3.0 0.00 0.00 0.00 89 1009.5
20260503045951 56 307 0.0 3.0 0.00 0.00 0.00 89 1009.5
20260503044946 56 260 2.0 4.0 0.00 0.00 0.00 89 1009.5
20260503044449 56 345 0.0 4.0 0.00 0.00 0.00 89 1009.4
20260503043941 56 329 1.0 4.0 0.00 0.00 0.00 89 1009.3
20260503043440 57 337 1.0 2.0 0.00 0.00 0.00 89 1009.1
20260503042941 57 314 1.0 4.0 0.00 0.00 0.00 89 1009.2
20260503042546 57 314 1.0 4.0 0.00 0.00 0.00 89 1009.1
20260503041939 57 58 0.0 3.0 0.00 0.00 0.00 89 1009.0
20260503041436 57 334 1.0 3.0 0.00 0.00 0.00 89 1009.2
20260503040937 57 99 1.0 6.0 0.00 0.00 0.00 89 1009.0
20260503040657 57 285 0.0 6.0 0.00 0.00 0.00 89 1009.0
20260503040435 57 309 2.0 6.0 0.00 0.00 0.00 89 1009.0
20260503035435 57 334 3.0 6.0 0.00 0.00 0.00 88 1008.8
20260503034933 57 7 1.0 4.0 0.00 0.00 0.00 89 1008.8
20260503034431 57 0 0.0 3.0 0.00 0.00 0.00 89 1008.8
20260503033930 57 25 0.0 7.0 0.00 0.00 0.00 88 1008.8
20260503033605 57 28 1.0 7.0 0.00 0.00 0.00 88 1008.8
20260503032948 57 275 1.0 6.0 0.00 0.00 0.00 88 1008.5
20260503032928 57 332 0.0 4.0 0.00 0.00 0.00 88 1008.6
20260503031425 58 314 3.0 6.0 0.00 0.00 0.00 87 1008.6
20260503030925 58 17 1.0 4.0 0.00 0.00 0.00 87 1008.3
20260503030423 58 358 2.0 3.0 0.00 0.00 0.00 87 1008.5
20260503025925 58 46 1.0 7.0 0.00 0.00 0.00 87 1008.2
20260503025421 58 349 1.0 7.0 0.00 0.00 0.00 86 1008.2
20260503024921 59 119 1.0 6.0 0.00 0.00 0.00 85 1008.2
20260503024420 59 34 1.0 4.0 0.00 0.00 0.00 85 1008.1
20260503023918 59 47 0.0 4.0 0.00 0.00 0.00 85 1008.2
20260503023418 59 338 2.0 4.0 0.00 0.00 0.00 84 1008.0
20260503022930 59 314 1.0 7.0 0.00 0.00 0.00 86 1008.0
20260503022916 59 354 0.0 7.0 0.00 0.00 0.00 86 1007.8
20260503021914 60 134 1.0 8.0 0.00 0.00 0.00 86 1007.8
20260503021414 60 334 0.0 8.0 0.00 0.00 0.00 86 1007.9
20260503020912 60 301 2.0 4.0 0.00 0.00 0.00 85 1007.8
20260503020411 60 292 1.0 4.0 0.00 0.00 0.00 85 1008.0
20260503015910 60 331 0.0 9.0 0.00 0.00 0.00 85 1007.9
20260503015409 61 292 3.0 9.0 0.00 0.00 0.00 85 1007.9
20260503014908 61 269 5.0 9.0 0.00 0.00 0.00 84 1008.0
20260503014408 61 215 2.0 6.0 0.00 0.00 0.00 83 1008.0
20260503013930 61 305 3.0 10.0 0.00 0.00 0.00 84 1008.0
20260503013909 61 256 1.0 10.0 0.00 0.00 0.00 84 1008.0
20260503012905 62 285 4.0 10.0 0.00 0.00 0.00 83 1007.7
20260503012404 62 49 3.0 10.0 0.00 0.00 0.00 83 1008.0
20260503011935 63 276 5.0 9.0 0.00 0.00 0.00 82 1007.9
20260503011904 62 24 1.0 10.0 0.00 0.00 0.00 83 1007.9
20260503010901 63 340 3.0 8.0 0.00 0.00 0.00 81 1007.9
20260503010400 63 5 1.0 9.0 0.00 0.00 0.00 81 1007.8
20260503005859 64 65 2.0 9.0 0.00 0.00 0.00 81 1007.9
20260503005429 65 304 2.0 10.0 0.00 0.00 0.00 79 1007.9
20260503005400 64 299 2.0 10.0 0.00 0.00 0.00 80 1007.9
20260503004355 65 296 2.0 9.0 0.00 0.00 0.00 80 1008.0
20260503003854 66 320 2.0 7.0 0.00 0.00 0.00 77 1007.9
20260503003543 69 20 2.0 11.0 0.00 0.00 0.00 76 1009.7
20260503003442 67 19 1.0 8.0 0.00 0.00 0.00 78 1010.7
20260503003354 67 303 2.0 7.0 0.00 0.00 0.00 76 1008.0
20260503003337 56 92 0.0 2.0 0.00 0.00 0.00 98 1009.3
20260503003329 57 153 1.0 3.0 0.00 0.00 0.00 98 1009.9
20260503003240 56 271 0.0 3.0 0.00 0.00 0.00 99 1010.2
20260503003231 57 72 0.0 4.0 0.00 0.00 0.00 98 1010.6
20260503003206 56 208 2.0 4.0 0.00 0.00 0.00 98 1010.6
20260503002852 66 301 1.0 7.0 0.00 0.00 0.00 76 1008.0
20260503002351 67 225 5.0 8.0 0.00 0.00 0.00 77 1008.1
20260503001851 68 293 0.0 8.0 0.00 0.00 0.00 76 1007.8
20260503001349 69 316 0.0 4.0 0.00 0.00 0.00 74 1008.0
20260503001237 68 302 2.0 6.0 0.00 0.00 0.00 76 1008.0
20260503000852 67 309 1.0 6.0 0.00 0.00 0.00 75 1008.0
20260502235847 68 346 2.0 6.0 0.00 0.00 0.00 74 1007.9
20260502235347 68 300 2.0 6.0 0.00 0.00 0.00 74 1008.1
20260502234846 69 318 4.0 6.0 0.00 0.00 0.00 73 1008.1
20260502234343 69 331 1.0 7.0 0.00 0.00 0.00 73 1008.0
20260502234255 67 46 2.0 10.0 0.00 0.00 0.00 74 1008.3
20260502233842 68 99 4.0 9.0 0.00 0.00 0.00 73 1008.0
20260502233342 67 0 2.0 9.0 0.00 0.00 0.00 76 1008.2
20260502232404 67 315 7.0 13.0 0.00 0.00 0.00 77 1008.5
20260502232340 67 357 5.0 10.0 0.00 0.00 0.00 77 1008.4
20260502231838 67 341 1.0 10.0 0.00 0.00 0.00 76 1008.4
20260502231700 67 353 4.0 13.0 0.00 0.00 0.00 78 1008.6
20260502231337 66 278 2.0 13.0 0.00 0.00 0.00 78 1008.3
20260502230811 67 326 4.0 13.0 0.00 0.00 0.00 77 1008.6
20260502230336 65 288 2.0 13.0 0.00 0.00 0.00 78 1008.5
20260502224833 67 280 3.0 10.0 0.00 0.00 0.00 76 1008.7
20260502224332 66 29 2.0 10.0 0.00 0.00 0.00 78 1008.8
20260502223830 67 316 4.0 10.0 0.00 0.00 0.00 76 1008.7
20260502223713 65 1 2.0 8.0 0.00 0.00 0.00 78 1009.1
20260502223329 66 4 3.0 8.0 0.00 0.00 0.00 76 1009.0
20260502222829 66 18 3.0 8.0 0.00 0.00 0.00 77 1008.9
20260502221828 65 301 2.0 13.0 0.00 0.00 0.00 79 1009.3
20260502221324 65 35 0.0 13.0 0.00 0.00 0.00 80 1009.3
20260502220825 66 83 3.0 9.0 0.00 0.00 0.00 79 1009.4
20260502220325 65 109 6.0 9.0 0.00 0.00 0.00 78 1009.4
20260502215823 65 358 3.0 9.0 0.00 0.00 0.00 80 1009.4
20260502215735 67 168 2.0 7.0 0.00 0.00 0.00 77 1009.5
20260502215323 65 63 3.0 8.0 0.00 0.00 0.00 79 1009.5
20260502214822 65 28 5.0 9.0 0.00 0.00 0.00 80 1009.5
20260502214331 66 42 1.0 9.0 0.00 0.00 0.00 79 1009.6
20260502213819 68 354 2.0 9.0 0.00 0.00 0.00 78 1009.5
20260502213002 70 334 0.0 4.0 0.00 0.00 0.00 74 1010.0
20260502212816 68 336 1.0 7.0 0.00 0.00 0.00 76 1009.7
20260502212625 69 2 0.0 6.0 0.00 0.00 0.00 73 1009.7
20260502212316 69 315 1.0 7.0 0.00 0.00 0.00 74 1009.8
20260502211818 69 350 0.0 11.0 0.00 0.00 0.00 76 1009.8
20260502205810 69 304 2.0 6.0 0.00 0.00 0.00 75 1009.8
20260502205310 69 191 1.0 6.0 0.00 0.00 0.00 75 1009.9
20260502204810 68 182 2.0 4.0 0.00 0.00 0.00 75 1010.2
20260502204307 67 289 3.0 6.0 0.00 0.00 0.00 76 1010.2
20260502203806 67 325 2.0 9.0 0.00 0.00 0.00 79 1010.1
20260502203306 68 251 1.0 9.0 0.00 0.00 0.00 78 1010.1
20260502202803 67 350 1.0 8.0 0.00 0.00 0.00 76 1010.1
20260502202617 65 30 5.0 10.0 0.00 0.00 0.00 81 1010.8
20260502202305 68 265 2.0 8.0 0.00 0.00 0.00 75 1010.2
20260502201803 68 330 2.0 8.0 0.00 0.00 0.00 75 1010.3
20260502201302 66 309 4.0 8.0 0.00 0.00 0.00 78 1010.7
20260502201138 67 319 3.0 8.0 0.00 0.00 0.00 78 1010.4
20260502200739 66 311 2.0 9.0 0.00 0.00 0.00 78 1010.3
20260502200150 65 296 2.0 10.0 0.00 0.00 0.00 79 1010.4
20260502195135 65 232 1.0 8.0 0.00 0.00 0.00 80 1010.8
20260502195059 66 313 2.0 9.0 0.00 0.00 0.00 78 1010.6
20260502194637 66 306 2.0 10.0 0.00 0.00 0.00 78 1010.6
20260502194139 67 217 7.0 10.0 0.00 0.00 0.00 80 1010.8
20260502192636 67 240 4.0 8.0 0.00 0.00 0.00 75 1010.7
20260502191615 65 332 2.0 9.0 0.00 0.00 0.00 82 1010.8
20260502191114 65 271 3.0 8.0 0.00 0.00 0.00 80 1010.9
20260502190613 64 310 1.0 9.0 0.00 0.00 0.00 82 1011.0
20260502190515 64 293 1.0 7.0 0.00 0.00 0.00 81 1011.0
20260502190114 64 204 3.0 9.0 0.00 0.00 0.00 81 1010.9
20260502185614 63 348 1.0 7.0 0.00 0.00 0.00 81 1010.9
20260502185114 64 326 1.0 7.0 0.00 0.00 0.00 81 1011.0
20260502184613 64 53 0.0 7.0 0.00 0.00 0.00 82 1010.8